Home > Weather > Manizales > Past weeks

Flag for Colombia Past Weather in Manizales, Colombia — Yesterday and Last 2 Weeks

Now
68 °F

Thunderstorms. Scattered clouds.


Feels Like: 68 °F
Forecast: 55 / 71 °F
Wind: 5 mph from Southeast

Location: Pereira / Matecana

Current Time: Jul 1, 2016 at 2:00:14 PM

Latest Report: Jul 1, 2016 at 1:00 PM


Visibility: 3 mi

Pressure: 30.06 "Hg (23.43 "Hg at 2139m altitude)

Humidity: 88%

Dew Point: 64 °F

Location of ManizalesLocation

Past Weather in Manizales — Graph

°F

Manizales Temperature Yesterday

Maximum temperature yesterday: 81 °F (at 2:00 PM)
Minimum temperature yesterday: 66 °F (at 5:00 AM)
Average temperature yesterday: 73 °F

High & Low Weather Summary for the Past Weeks

 TemperatureHumidityPressure
High86 °F (Jun 27, 4:00 PM)100% (Jun 21, 5:00 AM)30.13 "Hg (Jun 21, 5:00 AM)
Low55 °F (Jun 22, 9:00 AM)48% (Jun 28, 4:00 PM)29.91 "Hg (Jun 27, 4:00 PM)
Average73 °F77%30.04 "Hg
* Reported Jun 16 12:00 PM — Jul 1 12:00 PM, Manizales, Weather by CustomWeather, © 2016

Note: Actual official high and low records may vary slightly from our data, if they occured in-between our weather recording intervals... More about our weather records

Advertising

Manizales Weather History for the Previous 24 Hours

Scroll right to see more
 ConditionsComfort  
Time TempWeatherWind HumidityBarometerVisibility
12:00 PM
Fri, Jul 1
75 °FScattered showers. Scattered clouds.2 mph74%30.07 "HgN/A
11:00 AM75 °FScattered clouds.7 mph74%30.08 "HgN/A
10:00 AM75 °FScattered clouds.3 mph74%30.10 "HgN/A
9:00 AM75 °FScattered clouds.2 mph74%30.10 "HgN/A
8:00 AM72 °FScattered clouds.3 mph78%30.09 "HgN/A
7:00 AM68 °FPartly sunny.6 mph88%30.06 "HgN/A
6:00 AM68 °FScattered clouds.2 mph88%30.04 "HgN/A
5:00 AM68 °FPassing clouds.2 mph88%30.03 "HgN/A
12:00 AM70 °FPassing clouds.2 mph83%30.06 "HgN/A
11:00 PM
Thu, Jun 30
70 °FPassing clouds.3 mph83%30.06 "HgN/A
10:00 PM70 °FPassing clouds.6 mph83%30.05 "HgN/A
9:00 PM72 °FPassing clouds.6 mph78%30.04 "HgN/A
8:00 PM72 °FPassing clouds.2 mph83%30.02 "HgN/A
7:00 PM73 °FPassing clouds.5 mph78%30.00 "HgN/A
6:00 PM75 °FScattered clouds.2 mph74%29.96 "HgN/A
5:00 PM77 °FScattered clouds.5 mph74%29.94 "HgN/A
4:00 PM77 °FScattered clouds.2 mph79%29.94 "HgN/A
3:00 PM73 °FBroken clouds.7 mph89%29.95 "HgN/A
2:00 PM81 °FPartly sunny.6 mph66%29.98 "HgN/A
Weather by CustomWeather, © 2016

See weather overviewHow to use our weather pages